Weather History for Aracaju Airport, Brazil

Change the Weather History Date:

Saturday, September 7, 2013

  Actual Average Record
Temperature  
Mean Temperature 76 °F -  
Max Temperature 80 °F 80 °F 84 °F (1997)
Min Temperature 71 °F 73 °F 71 °F (2010)
Cooling Degree Days 10    
Growing Degree Days 26 (Base 50)    
Moisture  
Dew Point 68 °F    
Average Humidity 76    
Maximum Humidity 89    
Minimum Humidity 65    
Precipitation  
Precipitation 0.00 in - - ()
Sea Level Pressure  
Sea Level Pressure 30.02 in    
Wind  
Wind Speed 8 mph ()    
Max Wind Speed 15 mph    
Max Gust Speed -    
Visibility 6.0 miles    
Events Rain    
Averages and records for this station are not official NWS values.
T = Trace of Precipitation, MM = Missing Value Source: Averaged Metar Reports

Daily Weather History Graph

Daily Weather History Graph

Search for Another Location

Airport:

Trip Planner

Search our weather history database for the weather conditions in past years. The results will help you decide how hot, cold, wet, or windy it might be!

Date:

Astronomy

Sep. 07, 2013 Rise Set
Actual Time 5:27 AM BRT 5:25 PM BRT
Civil Twilight 5:06 AM BRT 5:46 PM BRT
Nautical Twilight 4:41 AM BRT 6:10 PM BRT
Astronomical Twilight 4:17 AM BRT 6:35 PM BRT
Moon 6:42 AM BRT (9/7) 7:16 PM BRT (9/7)
Length of Visible Light 12h 39m
Length of Day
11h 57m
Waxing Crescent, 5% of the Moon is Illuminated
Sep 7
Waxing Crescent
Sep 12
First Quarter
Sep 19
Full
Sep 27
Last Quarter
Oct 4
New

Hourly Weather History & Observations

Time (BRT) Temp. Heat Index Dew Point Humidity Pressure Visibility Wind Dir Wind Speed Gust Speed Precip Events Conditions
12:00 AM 73.4 °F - 69.8 °F 88% 30.04 in 6.2 mi SSE 6.9 mph - N/A   Scattered Clouds
1:00 AM 73.4 °F - 68.0 °F 83% 30.01 in 6.2 mi SSW 4.6 mph - N/A   Scattered Clouds
2:00 AM 73.4 °F - 69.8 °F 88% 29.98 in 6.2 mi East 4.6 mph - N/A   Scattered Clouds
2:34 AM 71.6 °F - 68.0 °F 88% 29.98 in 2.5 mi SE 12.7 mph - N/A Rain Light Rain
3:00 AM 71.6 °F - 68.0 °F 88% 29.98 in 6.2 mi SSE 8.1 mph - N/A   Scattered Clouds
4:00 AM 73.4 °F - 68.0 °F 83% 29.98 in 6.2 mi East 5.8 mph - N/A   Scattered Clouds
5:00 AM 73.4 °F - 68.0 °F 83% 29.98 in 6.2 mi SW 3.5 mph - N/A   Scattered Clouds
6:00 AM 73.4 °F - 69.8 °F 88% 30.01 in 5.0 mi North 3.5 mph - N/A   Scattered Clouds
7:00 AM 73.4 °F - 68.0 °F 83% 30.04 in 6.2 mi West 4.6 mph - N/A   Scattered Clouds
8:00 AM 75.2 °F - 71.6 °F 89% 30.04 in 6.2 mi NNW 4.6 mph - N/A   Partly Cloudy
9:00 AM 77.0 °F - 71.6 °F 83% 30.06 in 6.2 mi West 3.5 mph - N/A   Partly Cloudy
10:00 AM 78.8 °F - 69.8 °F 74% 30.06 in 6.2 mi SE 11.5 mph - N/A   Partly Cloudy
11:00 AM 80.6 °F 83.2 °F 68.0 °F 65% 30.04 in 6.2 mi SE 13.8 mph - N/A   Mostly Cloudy
12:00 PM 80.6 °F 83.2 °F 68.0 °F 65% 30.04 in 6.2 mi SE 13.8 mph - N/A   Mostly Cloudy
1:00 PM 80.6 °F 83.9 °F 69.8 °F 70% 30.01 in 6.2 mi SE 12.7 mph - N/A   Mostly Cloudy
2:00 PM 80.6 °F 83.2 °F 68.0 °F 65% 30.01 in 6.2 mi SE 13.8 mph - N/A   Scattered Clouds
3:00 PM 80.6 °F 83.2 °F 68.0 °F 65% 29.98 in 6.2 mi SE 15.0 mph - N/A   Scattered Clouds
4:00 PM 80.6 °F 83.2 °F 68.0 °F 65% 30.01 in 6.2 mi SE 12.7 mph - N/A   Scattered Clouds
5:00 PM 78.8 °F - 68.0 °F 69% 30.01 in 6.2 mi SE 11.5 mph - N/A   Scattered Clouds
6:00 PM 78.8 °F - 68.0 °F 69% 30.04 in 6.2 mi SE 10.4 mph - N/A   Scattered Clouds
7:00 PM 77.0 °F - 66.2 °F 69% 30.04 in 6.2 mi SE 11.5 mph - N/A   Scattered Clouds
8:00 PM 77.0 °F - 66.2 °F 69% 30.06 in 6.2 mi SE 11.5 mph - N/A   Scattered Clouds
9:00 PM 77.0 °F - 68.0 °F 74% 30.06 in 6.2 mi ESE 15.0 mph - N/A   Scattered Clouds
10:00 PM 77.0 °F - 66.2 °F 69% 30.06 in 6.2 mi SE 13.8 mph - N/A   Scattered Clouds
11:00 PM 77.0 °F - 68.0 °F 74% 30.09 in 6.2 mi SE 11.5 mph - N/A   Scattered Clouds